Weather History for KSGS - June, 2013

Change the Weather History Date:

Saturday, June 15, 2013

  Actual Average (KMSP) Record (KMSP)
Temperature  
Mean Temperature 72 °F 69 °F  
Max Temperature 78 °F 79 °F 94 °F (1913)
Min Temperature 65 °F 59 °F 41 °F (1989)
Degree Days  
Heating Degree Days 0 1  
Month to date heating degree days 34  
Since 1 June heating degree days 34  
Since 1 July heating degree days 7570  
Cooling Degree Days 6 5  
Month to date cooling degree days 56  
Year to date cooling degree days 98  
Since 1 June cooling degree days 56  
Growing Degree Days 22 (Base 50)    
Moisture  
Dew Point 64 °F    
Average Humidity 81    
Maximum Humidity 94    
Minimum Humidity 59    
Precipitation  
Precipitation 0.62 in 0.15 in 2.80 in (1874)
Month to date precipitation 2.04  
Year to date precipitation 11.62  
Snow  
Snow 0.00 in 0.00 in 0.00 in ()
Month to date snowfall 0.0  
Since 1 June snowfall 0.0  
Since 1 July snowfall 54.4  
Snow Depth -    
Sea Level Pressure  
Sea Level Pressure 29.88 in    
Wind  
Wind Speed 4 mph (South)    
Max Wind Speed 16 mph    
Max Gust Speed 24 mph    
Visibility 9 miles    
Events Rain , Thunderstorm    
T = Trace of Precipitation, MM = Missing Value Source: NWS Daily Summary

Daily Weather History Graph

Daily Weather History Graph

Search for Another Location

Airport or City:

Trip Planner

Search our weather history database for the weather conditions in past years. The results will help you decide how hot, cold, wet, or windy it might be!

Date:

Astronomy

Jun. 15, 2013 Rise Set
Actual Time 5:25 AM CDT 9:00 PM CDT
Civil Twilight 4:48 AM CDT 9:37 PM CDT
Nautical Twilight 3:58 AM CDT 10:26 PM CDT
Astronomical Twilight 2:54 AM CDT 11:31 PM CDT
Moon 12:16 PM CDT (6/15) 12:21 AM CDT (6/15)
Length of Visible Light 16h 49m
Length of Day
15h 34m
Waxing Crescent, 40% of the Moon is Illuminated
Jun 15
Waxing Crescent
Jun 16
First Quarter
Jun 23
Full
Jun 29
Last Quarter
Jul 8
New

Hourly Weather History & Observations

Time (CDT) Temp. Dew Point Humidity Pressure Visibility Wind Dir Wind Speed Gust Speed Precip Events Conditions
12:14 AM 71.1 °F 60.3 °F 69% 29.91 in 10.0 mi SSE 4.6 mph - 0.03 in Rain Light Rain
12:34 AM 70.7 °F 61.0 °F 71% 29.93 in 10.0 mi South 5.8 mph - 0.03 in Rain Light Rain
12:54 AM 69.8 °F 61.9 °F 76% 29.93 in 10.0 mi SSE 9.2 mph 17.3 mph 0.04 in   Light Drizzle
1:14 AM 68.5 °F 62.6 °F 81% 29.92 in 7.0 mi SSE 8.1 mph - 0.01 in Rain Rain
1:34 AM 66.4 °F 63.5 °F 90% 29.91 in 10.0 mi SSE 9.2 mph - 0.02 in Rain Light Rain
1:54 AM 67.1 °F 63.5 °F 88% 29.90 in 10.0 mi SSE 5.8 mph - 0.02 in   Overcast
2:14 AM 67.1 °F 63.9 °F 89% 29.91 in 10.0 mi SSE 3.5 mph - N/A   Overcast
2:34 AM 67.1 °F 63.7 °F 89% 29.90 in 10.0 mi Calm Calm - N/A   Overcast
2:54 AM 67.3 °F 63.5 °F 88% 29.90 in 10.0 mi SSE 3.5 mph - N/A   Overcast
3:14 AM 67.3 °F 63.5 °F 88% 29.90 in 10.0 mi SSE 3.5 mph - N/A   Overcast
3:34 AM 67.5 °F 63.5 °F 87% 29.90 in 10.0 mi SSE 3.5 mph - N/A   Overcast
3:54 AM 67.5 °F 63.5 °F 87% 29.89 in 10.0 mi SSE 3.5 mph - N/A   Overcast
4:14 AM 67.5 °F 63.5 °F 87% 29.88 in 10.0 mi SSE 3.5 mph - N/A   Overcast
4:34 AM 67.3 °F 63.5 °F 88% 29.87 in 10.0 mi SSE 4.6 mph - N/A   Scattered Clouds
4:54 AM 67.1 °F 63.5 °F 88% 29.87 in 10.0 mi South 3.5 mph - N/A   Scattered Clouds
5:14 AM 67.1 °F 63.7 °F 89% 29.87 in 10.0 mi Calm Calm - N/A   Scattered Clouds
5:34 AM 67.1 °F 63.7 °F 89% 29.88 in 10.0 mi SSE 3.5 mph - N/A   Scattered Clouds
5:54 AM 66.9 °F 63.5 °F 89% 29.88 in 10.0 mi SSE 3.5 mph - N/A   Clear
6:14 AM 66.6 °F 63.5 °F 90% 29.88 in 10.0 mi Calm Calm - N/A   Clear
6:34 AM 66.6 °F 63.7 °F 90% 29.89 in 7.0 mi Calm Calm - N/A   Clear
6:54 AM 67.1 °F 64.0 °F 90% 29.89 in 7.0 mi Calm Calm - N/A   Scattered Clouds
7:14 AM 67.6 °F 64.4 °F 89% 29.88 in 10.0 mi SSE 3.5 mph - N/A   Clear
7:34 AM 68.5 °F 64.6 °F 87% 29.89 in 10.0 mi SSE 5.8 mph - N/A   Clear
7:54 AM 69.8 °F 64.6 °F 83% 29.89 in 10.0 mi South 6.9 mph - N/A   Scattered Clouds
8:14 AM 69.8 °F 64.6 °F 83% 29.89 in 10.0 mi SSE 3.5 mph - N/A   Mostly Cloudy
8:34 AM 71.1 °F 65.3 °F 82% 29.89 in 10.0 mi Calm Calm - N/A   Mostly Cloudy
8:54 AM 71.2 °F 65.3 °F 81% 29.90 in 10.0 mi Calm Calm - N/A   Mostly Cloudy
9:14 AM 72.5 °F 65.8 °F 80% 29.90 in 10.0 mi South 5.8 mph - N/A   Mostly Cloudy
9:34 AM 72.5 °F 65.7 °F 79% 29.90 in 10.0 mi SE 4.6 mph - N/A   Mostly Cloudy
9:54 AM 73.4 °F 66.0 °F 78% 29.90 in 10.0 mi SE 3.5 mph - N/A   Scattered Clouds
10:14 AM 74.5 °F 66.4 °F 76% 29.90 in 10.0 mi South 5.8 mph - N/A   Scattered Clouds
10:34 AM 75.2 °F 66.4 °F 74% 29.89 in 10.0 mi South 5.8 mph - N/A   Mostly Cloudy
10:54 AM 75.2 °F 66.2 °F 73% 29.89 in 10.0 mi South 4.6 mph - N/A   Overcast
11:14 AM 75.9 °F 66.6 °F 73% 29.89 in 10.0 mi WSW 4.6 mph - N/A   Overcast
11:34 AM 76.1 °F 66.6 °F 72% 29.87 in 10.0 mi Calm Calm - N/A   Mostly Cloudy
11:54 AM 76.3 °F 66.4 °F 71% 29.88 in 10.0 mi Calm Calm - N/A   Mostly Cloudy
12:14 PM 76.3 °F 66.7 °F 72% 29.91 in 10.0 mi SW 5.8 mph - N/A   Mostly Cloudy
12:34 PM 76.6 °F 67.1 °F 72% 29.91 in 10.0 mi SSW 5.8 mph - N/A   Overcast
12:54 PM 77.7 °F 67.6 °F 71% 29.90 in 10.0 mi SSW 8.1 mph - N/A   Mostly Cloudy
1:14 PM 78.1 °F 67.1 °F 69% 29.89 in 10.0 mi SW 9.2 mph - N/A   Scattered Clouds
1:34 PM 77.4 °F 67.1 °F 71% 29.89 in 10.0 mi SW 8.1 mph - N/A   Mostly Cloudy
1:54 PM 75.7 °F 68.4 °F 78% 29.88 in 1.5 mi South 4.6 mph - 0.16 in Rain , Thunderstorm Heavy Thunderstorms and Rain
2:14 PM 72.5 °F 70.2 °F 92% 29.87 in 10.0 mi Calm Calm - N/A   Mostly Cloudy
2:34 PM 73.2 °F 70.9 °F 92% 29.87 in 10.0 mi Calm Calm - N/A   Overcast
2:54 PM 73.6 °F 71.6 °F 93% 29.87 in 10.0 mi South 5.8 mph - N/A Thunderstorm Overcast
3:14 PM 69.6 °F 67.1 °F 92% 29.89 in 1.5 mi SSW 16.1 mph 24.2 mph 0.22 in Rain , Thunderstorm Heavy Thunderstorms and Rain
3:34 PM 65.5 °F 63.3 °F 93% 29.87 in 7.0 mi South 8.1 mph 17.3 mph 0.31 in Rain , Thunderstorm Light Thunderstorms and Rain
3:54 PM 67.6 °F 65.7 °F 93% 29.90 in 10.0 mi NW 6.9 mph - 0.35 in Rain , Thunderstorm Light Thunderstorms and Rain
4:14 PM 68.0 °F 66.2 °F 94% 29.90 in 7.0 mi NNW 10.4 mph 18.4 mph 0.03 in Rain , Thunderstorm Light Thunderstorms and Rain
4:34 PM 66.4 °F 64.6 °F 94% 29.89 in 10.0 mi North 13.8 mph 18.4 mph 0.05 in Rain , Thunderstorm Light Thunderstorms and Rain
4:54 PM 66.2 °F 64.4 °F 94% 29.87 in 10.0 mi North 8.1 mph - 0.05 in   Mostly Cloudy
5:14 PM 66.4 °F 64.4 °F 93% 29.85 in 10.0 mi North 3.5 mph - N/A   Overcast
5:34 PM 67.3 °F 65.3 °F 93% 29.85 in 10.0 mi NNW 6.9 mph - N/A   Overcast
5:54 PM 68.5 °F 66.6 °F 93% 29.85 in 10.0 mi North 5.8 mph - N/A   Scattered Clouds
6:14 PM 73.9 °F 64.6 °F 72% 29.85 in 10.0 mi North 5.8 mph - N/A   Clear
6:34 PM 75.9 °F 62.8 °F 64% 29.85 in 10.0 mi NW 8.1 mph - N/A   Clear
6:54 PM 76.3 °F 62.4 °F 62% 29.85 in 10.0 mi WNW 4.6 mph - N/A   Clear
7:14 PM 76.5 °F 61.3 °F 59% 29.85 in 10.0 mi WNW 4.6 mph - N/A   Clear
7:34 PM 76.1 °F 61.5 °F 60% 29.85 in 10.0 mi West 3.5 mph - N/A   Clear
7:54 PM 75.2 °F 62.4 °F 64% 29.85 in 10.0 mi West 5.8 mph - N/A   Clear
8:14 PM 75.2 °F 61.7 °F 63% 29.85 in 10.0 mi NW 4.6 mph - N/A   Clear
8:34 PM 73.9 °F 61.3 °F 65% 29.85 in 10.0 mi Calm Calm - N/A   Clear
8:54 PM 72.7 °F 61.7 °F 68% 29.85 in 10.0 mi Calm Calm - N/A   Clear
9:14 PM 71.8 °F 61.7 °F 70% 29.86 in 10.0 mi Calm Calm - N/A   Clear
9:34 PM 69.6 °F 62.4 °F 78% 29.87 in 10.0 mi Calm Calm - N/A   Clear
9:54 PM 69.4 °F 62.4 °F 78% 29.87 in 10.0 mi Calm Calm - N/A   Clear
10:14 PM 67.6 °F 61.5 °F 81% 29.88 in 10.0 mi Calm Calm - N/A   Clear
10:34 PM 67.3 °F 61.5 °F 82% 29.88 in 10.0 mi Calm Calm - N/A   Clear
10:54 PM 66.6 °F 61.0 °F 82% 29.89 in 7.0 mi Calm Calm - N/A   Clear
11:14 PM 66.0 °F 61.7 °F 86% 29.89 in 10.0 mi Calm Calm - N/A   Clear
11:34 PM 65.5 °F 61.7 °F 88% 29.90 in 7.0 mi Calm Calm - N/A   Clear
11:54 PM 65.3 °F 61.9 °F 89% 29.90 in 7.0 mi Calm Calm - N/A   Clear